Regional Weather Roundup
Issued by NWS Kansas City/Pleasant Hill, MO

Current Version | Previous Version | Graphics & Text | Print | Product List | Glossary On
Versions: 1 2 3 4 5 6 7 8 9 10 11 12 13 14 15 16 17 18 19 20 21 22 23 24 25 26 27 28 29 30 31 32 33 34 35 36 37 38 39 40 41 42 43 44 45 46 47 48 49 50
000
ASUS43 KEAX 091615
RWREAX

WEATHER ROUNDUP FOR EASTERN KANSAS AND NORTHWEST MISSOURI
NATIONAL WEATHER SERVICE KANSAS CITY/PLEASANT HILL MO
1100 AM CDT SUN AUG 09 2020

KSZ040-057-103>105-MOZ028-029-037-043-091700-
...KANSAS CITY METROPOLITAN AREA...

CITY           SKY/WX    TMP DP  RH WIND       PRES   REMARKS
K.C. INTL      CLOUDY    75  71  87 S15G23    29.98F
K.C. DOWNTOWN  CLOUDY    77  70  79 SE15G25   29.98F THUNDER
LEES SUMMIT    LGT RAIN  76  71  85 SE10      30.03F
OLATHE - IXD   LGT RAIN  78  73  84 SE12      30.03F
OLATHE - OJC   CLOUDY    75  73  93 SE9       30.04F
LAWRENCE       LGT RAIN  76  73  91 SE24G33   29.90F

$$

MOZ001>008-011>017-020>025-030>033-038>040-044>046-053-054-091700-
...NORTHERN AND CENTRAL MISSOURI...

CITY           SKY/WX    TMP DP  RH WIND       PRES   REMARKS
ST. JOSEPH     CLOUDY    78  73  84 NE6       29.99R
MOSBY          CLOUDY    73  72  94 SE10      29.99F
HARRISONVILLE  TSTM      77  73  88 E5        30.10R
WHITEMAN AFB   TSTM      81  72  74 W9        30.05R
CLINTON        NOT AVBL
SEDALIA        CLOUDY    83  73  72 W7        30.09R
MARSHALL       PTSUNNY   82  75  78 W6        30.08S
CHILLICOTHE      N/A     75  72  90 NE5       30.01F
MOBERLY        PTSUNNY   84  72  65 SW9       30.07S
KIRKSVILLE     PTSUNNY   84  75  74 SW9       30.06R HX  92

$$

MOZ041-047>049-056>058-063>065-088>090-097-091700-
...EASTERN AND SOUTHERN MISSOURI...

CITY           SKY/WX    TMP DP  RH WIND       PRES   REMARKS
ST. LOUIS INTL PTSUNNY   78  71  79 S13       30.09F
SPIRIT OF STL  CLOUDY    78  70  76 SE10      30.08S
COLUMBIA       CLOUDY    82  72  71 S12       30.06F
JEFFERSON CITY PTSUNNY   84  70  62 S7        30.05F
MEXICO         MOSUNNY   82  73  74 SW10G18   30.06F
HANNIBAL       PTSUNNY   81  64  57 S10       30.05F
ROLLA          SUNNY     83  72  69 S10       30.10F
LEBANON        PTSUNNY   81  72  74 S9        30.10F
OSAGE BEACH    PTSUNNY   87  76  69 S9        30.08F HX  97
SPRINGFIELD    MOSUNNY   84  72  67 S14G24    30.08F
BRANSON        PTSUNNY   84  72  65 S6        30.14S
JOPLIN         MOSUNNY   86  73  65 S18G26    30.05F HX  93
WEST PLAINS    MOSUNNY   84  73  69 S6        30.14F HX  90
SIKESTON       SUNNY     82  73  74 SW9       30.10S

$$

IAZ060-094-KSZ022-034>040-054-083-096-NEZ052-066-093-091700-
...KANSAS...SOUTHEAST NEBRASKA AND IOWA...

CITY           SKY/WX    TMP DP  RH WIND       PRES   REMARKS
TOPEKA         CLOUDY    76  69  79 S15       29.92R
MANHATTAN      MOSUNNY   81  69  67 SW20G31   29.91S
EMPORIA        TSTM      77  72  84 SE5       30.03R
CHANUTE        LGT RAIN  84  72  67 S10       30.02R
SALINA         PTSUNNY   80  67  64 S12       29.95F
WICHITA        CLOUDY    82  67  60 S8        29.98R
OMAHA          MOSUNNY   84  68  58 S15       29.87F
LINCOLN        SUNNY     86  68  54 SE17G29   29.88F
FALLS CITY     MOSUNNY   79  73  82 E13       29.95F
LAMONI         LGT RAIN  73  70  90 SE6       29.99F
DES MOINES     CLOUDY    82  72  71 S13       29.91F

$$




USA.gov is the U.S. government's official web portal to all federal, state and local government web resources and services.